"Pseudo-MPEC" for CC925T2

Created 2024 Nov 15 19:31:03 UT using Find_Orb

Click here for an explanation of pseudo-MPECs

 
 Astrometry: 
     CC925T2*1C2024 11 11.47288206 11 52.595+42 31 23.45   ~BBCH 20.89GVNEOCPG96
     CC925T2 1C2024 11 11.47808706 11 52.728+42 31 22.66   ~BBCH 20.79GVNEOCPG96
     CC925T2 1C2024 11 11.48329406 11 52.829+42 31 21.68   ~BBCH 20.76GVNEOCPG96
     CC925T2 1C2024 11 11.48850206 11 52.987+42 31 20.82   ~BBCH 21.09GVNEOCPG96
     CC925T2 KC2024 11 12.36397206 12 18.24 +42 29 03.7    ~BC9V 20.8 GVNEOCPH21
     CC925T2 KC2024 11 12.37033006 12 18.36 +42 29 02.5    ~BC9V 20.7 GVNEOCPH21
     CC925T2 KC2024 11 13.35436206 12 43.794+42 26 12.16   ~BDAH 20.86GVNEOCPI52
     CC925T2 KC2024 11 13.37048506 12 44.107+42 26 09.71   ~BDAH 21.16GVNEOCPI52
     CC925T2 KC2024 11 13.40852606 12 44.820+42 26 03.70   ~BDAH 22.53GVNEOCPI52
     CC925T2 KC2024 11 15.33805806 13 24.366+42 19 29.24   ~BF9V 20.99GVNEOCPI52
     CC925T2 KC2024 11 15.36449306 13 24.647+42 19 23.92   ~BF9V 21.16GVNEOCPI52
     CC925T2 KC2024 11 15.37903806 13 24.845+42 19 20.42   ~BF9V 21.21GVNEOCPI52

Station data:
(G96) Mt. Lemmon Survey  (N32.442729 W110.788720)  US/Arizona.  Observer E.
   J. Christensen. 1.5-m reflector + 10K CCD.
(H21) Astronomical Research Observatory, Westfield  (N39.483054 W87.968270)
   US/Illinois.  Observer R. Holmes. Measurers S. Foglia, L. Buzzi, T.
   Linder, R. Holmes. 0.76-m f/3.0 astrograph + CCD0.81-m f/4.0 astrograph +
   CCD0.61-m f/4.5 astrograph + CCD0.40-m f/5.32 astrograph + CCD.
(I52) Steward Observatory, Mt. Lemmon Station  (N32.442570 W110.788920)
   US/Arizona.  Observers T. A. Pruyne, B. M. Africano, E. J. Christensen, G.
   A. Farneth, D. C. Fuls, A. R. Gibbs, A. D. Grauer, H. Gröller, J. A.
   Johnson, R. A. Kowalski, S. M. Larson, G. J. Leonard, D. Rankin, R. L.
   Seaman, F. C. Shelly, K. W. Wierzchoś. 1.0-m prime focus + CCD.

Orbital elements:  CC925T2
   Perihelion 2025 Feb 24.79544 +/- 3.57 TT = 19:05:25 (JD 2460731.29544)
Epoch 2024 Nov 15.0 TT = JDT 2460629.5   Earth MOID: 0.4086      AutoNEOCP
M 323.30384020 +/- 1.8              (J2000 ecliptic)
n   0.36048923 +/- 0.00627          Peri.  208.82525 +/- 3.8
a   1.95527500 +/- 0.0227           Node   283.16141 +/- 0.58
e   0.2958228 +/- 0.00639           Incl.   14.55748 +/- 0.16
P   2.734/998.624d         H 19.87  G  0.15   U  9.3
q 1.37685988 +/- 0.0246    Q 2.53369013 +/- 0.0257
From 12 observations 2024 Nov. 11-15; mean residual 0".20
Residuals in arcseconds: 
241111 G96  .06+  .02+    241112 H21  .04-  .11+    241113 I52  .39+  .51+    
241111 G96  .12+  .07+    241112 H21  .24-  .03-    241115 I52  .02+  .04+    
241111 G96  .18-  .06-    241113 I52  .16-  .42-    241115 I52  .23-  .19+    
241111 G96  .15+  .07-    241113 I52  .04+  .16-    241115 I52  .16+  .22-    

Ephemerides (geocentric):
Date (UTC) HH   RA             Dec           delta  r     elong  mag " sig PA
---- --------  ------------   ------------  ------ ------ -----  --- --------
2024 11 15 20  06 13 31.927   +42 17 34.41  .70113 1.5776 137.3 21.2 .323  42
2024 11 15 21  06 13 32.561   +42 17 24.63  .70078 1.5774 137.3 21.2 .341  41
2024 11 15 22  06 13 33.190   +42 17 14.81  .70043 1.5773 137.4 21.2 .360  41
2024 11 15 23  06 13 33.813   +42 17 04.95  .70007 1.5772 137.4 21.2 .379  41
2024 11 16 00  06 13 34.430   +42 16 55.06  .69972 1.5770 137.4 21.2 .399  41
2024 11 16 01  06 13 35.041   +42 16 45.13  .69936 1.5769 137.5 21.2 .419  41
2024 11 16 02  06 13 35.645   +42 16 35.16  .69901 1.5767 137.5 21.2 .439  41
2024 11 16 03  06 13 36.244   +42 16 25.15  .69866 1.5766 137.6 21.2 .460  41
2024 11 16 04  06 13 36.837   +42 16 15.11  .69830 1.5764 137.6 21.2 .481  41
2024 11 16 05  06 13 37.423   +42 16 05.03  .69795 1.5763 137.6 21.2 .503  41
2024 11 16 06  06 13 38.004   +42 15 54.90  .69760 1.5762 137.7 21.2 .525  41
2024 11 16 07  06 13 38.578   +42 15 44.75  .69725 1.5760 137.7 21.2 .547  41
2024 11 16 08  06 13 39.146   +42 15 34.55  .69689 1.5759 137.7 21.2 .570  41
2024 11 16 09  06 13 39.709   +42 15 24.31  .69654 1.5757 137.8 21.2 .593  41
2024 11 16 10  06 13 40.265   +42 15 14.04  .69619 1.5756 137.8 21.2 .617  40
2024 11 16 11  06 13 40.815   +42 15 03.73  .69584 1.5755 137.8 21.2 .640  40
2024 11 16 12  06 13 41.359   +42 14 53.38  .69549 1.5753 137.9 21.2 .665  40
2024 11 16 13  06 13 41.897   +42 14 42.99  .69514 1.5752 137.9 21.2 .689  40
2024 11 16 14  06 13 42.429   +42 14 32.57  .69479 1.5750 138.0 21.2 .715  40
2024 11 16 15  06 13 42.954   +42 14 22.10  .69444 1.5749 138.0 21.2 .740  40
2024 11 16 16  06 13 43.474   +42 14 11.60  .69409 1.5747 138.0 21.2 .766  40
2024 11 16 17  06 13 43.988   +42 14 01.06  .69373 1.5746 138.1 21.2 .792  40
2024 11 16 18  06 13 44.495   +42 13 50.48  .69338 1.5745 138.1 21.2 .819  40
2024 11 16 19  06 13 44.997   +42 13 39.86  .69303 1.5743 138.1 21.2 .846  40
2024 11 16 20  06 13 45.492   +42 13 29.21  .69269 1.5742 138.2 21.2 .874  40
2024 11 16 21  06 13 45.981   +42 13 18.51  .69234 1.5740 138.2 21.2 .902  40
2024 11 16 22  06 13 46.464   +42 13 07.77  .69199 1.5739 138.2 21.2 .930  40
2024 11 16 23  06 13 46.941   +42 12 57.00  .69164 1.5738 138.3 21.2 .959  40
2024 11 17 00  06 13 47.412   +42 12 46.19  .69129 1.5736 138.3 21.2 .988  40
2024 11 17 01  06 13 47.876   +42 12 35.34  .69094 1.5735 138.4 21.2 1.02  40
2024 11 17 02  06 13 48.335   +42 12 24.45  .69059 1.5733 138.4 21.2 1.05  40
2024 11 17 03  06 13 48.787   +42 12 13.52  .69024 1.5732 138.4 21.2 1.08  40
2024 11 17 04  06 13 49.233   +42 12 02.55  .68989 1.5730 138.5 21.2 1.11  40
2024 11 17 05  06 13 49.673   +42 11 51.54  .68955 1.5729 138.5 21.2 1.14  40
2024 11 17 06  06 13 50.107   +42 11 40.49  .68920 1.5728 138.5 21.2 1.17  40
2024 11 17 07  06 13 50.535   +42 11 29.40  .68885 1.5726 138.6 21.2 1.21  40
2024 11 17 08  06 13 50.957   +42 11 18.28  .68850 1.5725 138.6 21.2 1.24  40
2024 11 17 09  06 13 51.372   +42 11 07.11  .68816 1.5723 138.6 21.2 1.27  40
2024 11 17 10  06 13 51.782   +42 10 55.91  .68781 1.5722 138.7 21.2 1.30  40
2024 11 17 11  06 13 52.185   +42 10 44.66  .68746 1.5721 138.7 21.2 1.34  40
2024 11 17 12  06 13 52.582   +42 10 33.38  .68712 1.5719 138.8 21.2 1.37  40
2024 11 17 13  06 13 52.973   +42 10 22.05  .68677 1.5718 138.8 21.2 1.41  40
2024 11 17 14  06 13 53.357   +42 10 10.69  .68643 1.5716 138.8 21.2 1.44  40
2024 11 17 15  06 13 53.736   +42 09 59.29  .68608 1.5715 138.9 21.2 1.48  40
2024 11 17 16  06 13 54.108   +42 09 47.84  .68573 1.5714 138.9 21.2 1.52  40
2024 11 17 17  06 13 54.474   +42 09 36.36  .68539 1.5712 138.9 21.2 1.55  40
2024 11 17 18  06 13 54.834   +42 09 24.83  .68504 1.5711 139.0 21.2 1.59  40
2024 11 17 19  06 13 55.188   +42 09 13.27  .68470 1.5709 139.0 21.2 1.63  40